This demonstration page uses our WeatherBlox Daily Observations layout. Learn more.

Left ArrowRight Arrow

Hourly Observations for July 24, 2017

Temp ( °F °C ) Dew Point ( °F °C ) Humidity (%) Winds ( mph kmh ) Pressure ( in mb ) Visibility ( mi km ) Precip ( " mm )
12:53 am 00:53 Clear 77 25 49 9.4 37 37 VRB 3 6 29.73 1007 10 16 0.00 0.00
1:53 am 01:53 Clear 76 24.4 51 10.6 42 42 NNW 6 9 29.73 1007 10 16 0.00 0.00
2:53 am 02:53 Clear 76 24.4 51 10.6 42 42 Calm 29.73 1007 10 16 0.00 0.00
3:53 am 03:53 Clear 75 23.9 52 11.1 45 45 NNW 5 7 29.73 1007 10 16 0.00 0.00
4:53 am 04:53 Clear 74 23.3 53 11.7 48 48 WNW 5 7 29.73 1007 10 16 0.00 0.00
5:53 am 05:53 Clear 71 21.7 53 11.7 53 53 WNW 6 9 29.75 1007 10 16 0.00 0.00
6:53 am 06:53 Sunny 71 21.7 54 12.2 55 55 Calm 29.76 1008 10 16 0.00 0.00
7:53 am 07:53 Sunny 74 23.3 53 11.7 48 48 Calm 29.78 1008 10 16 0.00 0.00
8:53 am 08:53 Sunny 79 26.1 54 12.2 42 42 W 5 7 29.78 1009 10 16 0.00 0.00
9:53 am 09:53 Sunny 83 28.3 51 10.6 33 33 Calm 29.78 1009 10 16 0.00 0.00
10:53 am 10:53 Sunny 87 30.6 51 10.6 29 29 VRB 5 7 29.78 1008 10 16 0.00 0.00
11:53 am 11:53 Sunny 91 32.8 51 10.6 26 26 VRB 6 9 29.77 1008 10 16 0.00 0.00
12:53 pm 12:53 Sunny 95 35 48 8.9 20 20 S 3 6 29.75 1007 10 16 0.00 0.00
1:53 pm 13:53 Sunny 98 36.7 45 7.2 16 16 SSW 12 19 29.73 1007 10 16 0.00 0.00
2:53 pm 14:53 Sunny 100 37.8 43 6.1 14 14 VRB 5 7 29.71 1006 10 16 0.00 0.00
3:53 pm 15:53 Sunny 100 37.8 43 6.1 14 14 SSE 7 11 29.69 1006 10 16 0.00 0.00
4:53 pm 16:53 Sunny 100 37.8 43 6.1 14 14 S 7 11 29.68 1005 10 16 0.00 0.00
5:53 pm 17:53 Sunny 101 38.3 41 5 13 13 S 13 20 29.67 1005 10 16 0.00 0.00
6:53 pm 18:53 Sunny 98 36.7 43 6.1 15 15 SSE 13 20 29.69 1005 10 16 0.00 0.00
7:53 pm 19:53 Sunny 93 33.9 45 7.2 19 19 SSE 9 15 29.71 1006 10 16 0.00 0.00
8:53 pm 20:53 Clear 87 30.6 47 8.3 25 25 SE 6 9 29.75 1007 10 16 0.00 0.00
9:53 pm 21:53 Clear 85 29.4 52 11.1 32 32 Calm 29.79 1009 10 16 0.00 0.00
10:53 pm 22:53 Clear 82 27.8 55 12.8 40 40 ESE 5 7 29.81 1009 10 16 0.00 0.00
11:53 pm 23:53 Clear 79 26.1 53 11.7 41 41 SSW 7 11 29.83 1010 10 16 0.00 0.00

Powered by AerisWeather